Find Qianfan Xingzuo 02-11

NORAD ID: 61562 Int'l Des: 2024-185 Owner: YUANX Country: CN Constellation: spacesail operational
LEOCIRCULARPOLAR

現在のビュー

3D地球を読み込み中...

About Qianfan Xingzuo 02-11

Qianfan Xingzuo 02-11 (NORAD 61562) is a spacesail constellation satellite launched Oct 15, 2024 by YUANX of CN. It operates in LEO, CIRCULAR, POLAR orbit with a mass of 267.00 kg.

Qianfan Xingzuo 02-11について

説明を読み込み中...

次回通過

Passes for default location (London). Set your location on the main map for personalized predictions.

高度履歴

Loading altitude history...

軌道要素

1 61562U 24185L 26194.88520375 .00000116 00000-0 16132-3 0 9994
2 61562 88.9776 59.2811 0010748 144.4716 215.7153 13.51078437 96570
Epoch: Jul 13, 2026 • Age: 8 hours

現在のステータス

高度 1072.1 km
遠地点 / 近地点 N/A
速度 7.33 km/s
衛星直下点 63.37°N, 128.81°W
打ち上げ日 Oct 15, 2024
運用期間 1.7 years
タイプ internet

技術仕様

分類 Payload
質量 267.00 kg
乾燥質量 267.00 kg
総質量 267.00 kg
長さ 0.30 m
直径 3.00 m
スパン 10.00 m
形状 Box+pan
製造者 GESIH/SECM
バスタイプ Qianfan
フェーズステータス In Orbit
所有者/国 YUANX/CN

Most Searched